This demonstration page uses our WeatherBlox Daily Observations layout. Learn more.

Hourly Observations for May 31, 2015

Temp ( °F °C ) Dew Point ( °F °C ) Humidity (%) Winds ( mph kmh ) Pressure ( in mb ) Visibility ( mi km ) Precip ( " mm )
12:15 am 00:15 Clear 50 10 41 5 71 71 E 8 13 30.21 1023 10 16.09344 0 0
12:35 am 00:35 Clear 50 10 41 5 71 71 ENE 3 6 30.21 1023 10 16.09344 0 0
12:55 am 00:55 Clear 48 9 41 5 76 76 ENE 5 7 30.21 1023 10 16.09344 0 0
1:15 am 01:15 Clear 48 9 41 5 76 76 ENE 3 6 30.21 1023 10 16.09344 0 0
1:35 am 01:35 Clear 48 9 41 5 76 76 Calm 30.21 1023 10 16.09344 0 0
1:55 am 01:55 Clear 48 9 39 4 71 71 Calm 30.21 1023 10 16.09344 0 0
2:15 am 02:15 Clear 46 8 39 4 76 76 N 3 6 30.21 1023 10 16.09344 0 0
2:35 am 02:35 Clear 46 8 41 5 82 82 Calm 30.21 1023 10 16.09344 0 0
2:55 am 02:55 Clear 45 7 39 4 81 81 Calm 30.24 1024 10 16.09344 0 0
3:15 am 03:15 Clear 45 7 39 4 81 81 ENE 3 6 30.24 1024 10 16.09344 0 0
3:35 am 03:35 Clear 45 7 39 4 81 81 E 5 7 30.24 1024 10 16.09344 0 0
3:55 am 03:55 Clear 45 7 39 4 81 81 E 6 9 30.24 1024 10 16.09344 0 0
4:15 am 04:15 Clear 45 7 39 4 81 81 ESE 5 7 30.21 1023 10 16.09344 0 0
4:35 am 04:35 Clear 45 7 39 4 81 81 ESE 6 9 30.21 1023 10 16.09344 0 0
4:55 am 04:55 Clear 43 6 39 4 87 87 ESE 6 9 30.18 1022 10 16.09344 0 0
5:15 am 05:15 Clear 41 5 37 3 87 87 ESE 3 6 30.21 1023 10 16.09344 0 0
5:35 am 05:35 Clear 45 7 39 4 81 81 Calm 30.21 1023 10 16.09344 0 0
5:55 am 05:55 Clear 43 6 37 3 81 81 ESE 6 9 30.18 1022 10 16.09344 0 0
6:15 am 06:15 Sunny 41 5 37 3 87 87 ESE 7 11 30.18 1022 10 16.09344 0 0
6:35 am 06:35 Sunny 43 6 39 4 87 87 ESE 10 17 30.18 1022 10 16.09344 0 0
6:55 am 06:55 Sunny 46 8 41 5 82 82 ESE 7 11 30.15 1021 10 16.09344 0 0
7:15 am 07:15 Sunny 46 8 41 5 82 82 ESE 8 13 30.15 1021 10 16.09344 0 0
7:35 am 07:35 Sunny 48 9 41 5 76 76 SE 7 11 30.15 1021 10 16.09344 0 0
7:55 am 07:55 Sunny 52 11 43 6 72 72 SE 9 15 30.12 1020 10 16.09344 0 0
8:15 am 08:15 Sunny 54 12 46 8 77 77 SSE 10 17 30.12 1020 10 16.09344 0 0
8:35 am 08:35 Sunny 57 14 48 9 72 72 SSE 12 19 30.09 1019 10 16.09344 0 0
8:55 am 08:55 Sunny 59 15 48 9 68 68 SSE 12 19 30.09 1019 10 16.09344 0 0
9:15 am 09:15 Sunny 61 16 50 10 68 68 SSE 15 24 30.09 1019 10 16.09344 0 0
9:35 am 09:35 Sunny 61 16 48 9 63 63 SSE 16 26 30.09 1019 10 16.09344 0 0
9:55 am 09:55 Sunny 61 16 48 9 63 63 SSE 13 20 30.09 1019 10 16.09344 0 0
10:15 am 10:15 Sunny 61 16 48 9 63 63 SSE 14 22 30.09 1019 10 16.09344 0 0
10:35 am 10:35 Sunny 63 17 48 9 59 59 SSE 16 26 30.09 1019 10 16.09344 0 0
10:55 am 10:55 Sunny 63 17 48 9 59 59 S 15 24 30.09 1019 10 16.09344 0 0
11:15 am 11:15 Sunny 64 18 48 9 56 56 SSE 13 20 30.06 1018 10 16.09344 0 0
11:35 am 11:35 Sunny 64 18 48 9 56 56 SSE 16 26 30.06 1018 10 16.09344 0 0
11:55 am 11:55 Sunny 64 18 48 9 56 56 SSE 14 22 30.06 1018 10 16.09344 0 0
12:15 pm 12:15 Sunny 66 19 48 9 52 52 S 12 19 30.06 1018 10 16.09344 0 0
12:35 pm 12:35 Sunny 68 20 48 9 49 49 SSE 14 22 30.06 1018 10 16.09344 0 0
12:55 pm 12:55 Sunny 68 20 48 9 49 49 S 9 15 30.06 1018 10 16.09344 0 0
1:15 pm 13:15 Sunny 70 21 50 10 50 50 S 12 19 30.03 1017 10 16.09344 0 0
1:35 pm 13:35 Sunny 70 21 50 10 50 50 SSE 14 22 30 1016 10 16.09344 0 0
1:55 pm 13:55 Sunny 72 22 50 10 47 47 SE 16 26 30 1016 10 16.09344 0 0
2:15 pm 14:15 Sunny 70 21 50 10 50 50 S 14 22 30 1016 10 16.09344 0 0
2:35 pm 14:35 Sunny 72 22 50 10 47 47 SSE 18 30 30 1016 10 16.09344 0 0
2:55 pm 14:55 Sunny 72 22 50 10 47 47 SE 16 26 29.97 1015 10 16.09344 0 0
3:15 pm 15:15 Sunny 72 22 50 10 47 47 SSE 17 28 29.97 1015 10 16.09344 0 0
3:35 pm 15:35 Sunny 70 21 50 10 50 50 SSE 15 24 29.97 1015 10 16.09344 0 0
3:55 pm 15:55 Sunny 72 22 50 10 47 47 SSE 17 28 29.97 1015 10 16.09344 0 0
4:15 pm 16:15 Sunny 72 22 50 10 47 47 SSE 15 24 29.97 1015 10 16.09344 0 0
4:35 pm 16:35 Sunny 72 22 50 10 47 47 SE 20 31 29.94 1014 10 16.09344 0 0
4:55 pm 16:55 Partly Cloudy 72 22 48 9 44 44 S 17 28 29.94 1014 10 16.09344 0 0
5:15 pm 17:15 Partly Cloudy 73 23 50 10 44 44 SSE 15 24 29.94 1014 10 16.09344 0 0
5:35 pm 17:35 Sunny 72 22 50 10 47 47 SE 15 24 29.94 1014 10 16.09344 0 0
5:55 pm 17:55 Sunny 72 22 50 10 47 47 SE 16 26 29.94 1014 10 16.09344 0 0
6:15 pm 18:15 Sunny 72 22 50 10 47 47 SSE 16 26 29.94 1014 10 16.09344 0 0
6:35 pm 18:35 Sunny 72 22 50 10 47 47 SSE 16 26 29.94 1014 10 16.09344 0 0
7:15 pm 19:15 Partly Cloudy 70 21 50 10 50 50 S 15 24 29.97 1015 10 16.09344 0 0
7:35 pm 19:35 Mostly Cloudy 70 21 50 10 50 50 SSE 16 26 29.97 1015 10 16.09344 0 0
7:55 pm 19:55 Cloudy 70 21 52 11 53 53 SSE 15 24 29.97 1015 10 16.09344 0 0
8:15 pm 20:15 Cloudy 68 20 52 11 56 56 SE 15 24 30 1016 10 16.09344 0 0
8:35 pm 20:35 Cloudy 68 20 52 11 56 56 SE 14 22 30 1016 10 16.09344 0 0
8:55 pm 20:55 Cloudy 66 19 52 11 60 60 SE 14 22 30 1016 10 16.09344 0 0
9:15 pm 21:15 Cloudy 66 19 52 11 60 60 SE 15 24 30 1016 10 16.09344 0 0
9:35 pm 21:35 Partly Cloudy 64 18 52 11 64 64 SE 15 24 30 1016 10 16.09344 0 0
9:55 pm 21:55 Clear 64 18 52 11 64 64 SE 15 24 30.03 1017 10 16.09344 0 0
10:15 pm 22:15 Clear 63 17 52 11 68 68 SSE 15 24 30.03 1017 10 16.09344 0 0
10:35 pm 22:35 Clear 63 17 52 11 68 68 SE 14 22 30.03 1017 10 16.09344 0 0
10:55 pm 22:55 Clear 63 17 52 11 68 68 SE 15 24 30.03 1017 10 16.09344 0 0
11:15 pm 23:15 Clear 63 17 52 11 68 68 SSE 16 26 30.03 1017 10 16.09344 0 0
11:35 pm 23:35 Clear 61 16 52 11 72 72 SSE 13 20 30.06 1018 10 16.09344 0 0
11:55 pm 23:55 Clear 61 16 52 11 72 72 SE 13 20 30.06 1018 10 16.09344 0 0

Powered by AerisWeather